Simultaneous Nadir Overpasses (SNOs) Predictions

Prediction of SNOs between AQUA and NOAA-19 Satellite Orbit:

Table of predicted SNOs for the next 14.0 days since TLE Epoch: 7/28/2017
Index Date (AQUA) Time (AQUA) Lat,Lon (AQUA) SZA (AQUA ) Date (NOAA-19) Time (NOAA-19) Lat,Lon (NOAA-19) SZA (NOAA-19 ) Distance(km) Time Diff (sec)
1 07/30/2017 08:45:25 80.96, 8.11 64.97 07/30/2017 08:44:21 80.95, 8.11 64.99 1.34 64
2 07/30/2017 09:34:52 -80.96, 175.71 115.02 07/30/2017 09:35:16 -80.95, 175.79 115.05 1.92 24
3 08/01/2017 14:19:09 -80.94, 104.91 114.53 08/01/2017 14:18:04 -80.95, 104.72 114.47 3.33 65
4 08/01/2017 15:08:36 80.97, -87.75 65.54 08/01/2017 15:09:08 80.95, -87.64 65.50 2.59 32
5 08/03/2017 19:52:53 80.95,-158.59 66.06 08/03/2017 19:51:55 80.95,-158.50 66.08 1.53 58
6 08/03/2017 20:42:20 -80.95, 9.04 113.93 08/03/2017 20:42:51 -80.95, 9.09 113.95 0.86 31
7 08/06/2017 01:26:38 -80.96, -62.16 113.33 08/06/2017 01:25:39 -80.95, -62.01 113.33 2.81 59
8 08/06/2017 02:16:04 80.96, 105.51 66.68 08/06/2017 02:16:42 80.95, 105.67 66.64 2.90 38
9 08/08/2017 07:00:21 80.94, 34.63 67.25 08/08/2017 06:59:29 80.95, 34.74 67.27 2.08 52
10 08/08/2017 07:49:48 -80.94,-157.73 112.74 08/08/2017 07:50:26 -80.95,-157.69 112.76 1.25 38
11 08/10/2017 12:34:06 -80.95, 131.02 112.09 08/10/2017 12:33:14 -80.95, 131.17 112.09 2.70 52




NCC Satellite Simultaneous Nadir Overpasses (SNOs) Prediction Service
